Location: Rainwater Observatory
(33.2833°N, 89.3833°W)
Time: 15:27:16
(UTC-05:00)

Daily predictions for brighter satellites

Satellite Brightness Start Highest point End
(mag) Time Altitude Azimuth Time Altitude Azimuth Time Altitude Azimuth
ATLAS CENTAUR Rocket 4.3 19:59:19 10° W 20:05:32 69° S 20:57:36 10° ESE
ATLAS CENTAUR Rocket 4.3 19:59:19 10° W 20:05:33 69° S 20:57:36 10° ESE
H-2A R/B 3.7 20:31:20 10° S 20:33:19 15° SE 20:36:52 10° E
Cosmos 1538 Rocket 4.4 20:30:20 10° N 20:35:31 49° ENE 20:40:41 10° SE
Cosmos 540 Rocket 3.8 20:30:30 10° NNW 20:35:40 72° WSW 20:40:46 10° S
OTV 4 2.7 20:35:58 10° SSE 20:36:11 10° SE 20:36:22 10° SE
Cosmos 1378 3.9 20:33:00 10° SSW 20:36:40 57° W 20:40:23 10° N
USA 229 DEB 3.8 20:30:32 10° SSW 20:37:27 85° ESE 20:44:27 10° NNE
Cosmos 1833 4.5 20:32:03 10° S 20:37:32 49° ESE 20:42:59 10° NNE
USA 229 3.8 20:30:38 10° SSW 20:37:33 84° ESE 20:44:33 10° NNE
Tiangong 1 1.5 20:35:20 10° SW 20:38:16 41° SE 20:41:13 10° ENE
AVUM R/B 2.2 20:39:44 10° SSW 20:41:54 63° ESE 20:44:17 10° NNE
YAOGAN 11 4.4 20:40:05 10° SSE 20:44:13 49° ENE 20:48:26 10° N
Cosmos 2026 Rocket 4.5 20:40:59 10° SSW 20:47:00 66° W 20:53:09 10° N
H-2A R/B 2.7 20:43:35 10° SSE 20:47:26 89° SW 20:51:16 10° NNW
Cosmos 1939 Rocket 4.1 20:45:52 10° SE 20:49:04 24° ENE 20:52:15 10° NNE
H-2A R/B 3.2 20:45:34 10° SE 20:49:29 30° ENE 20:53:24 10° N
CZ-4 DEB 2.7 20:47:16 10° SSE 20:50:27 72° ENE 20:53:40 10° N
ATLAS CENTAUR R/B 2.4 20:47:44 10° NW 20:51:57 45° WSW 20:55:47 10° S
CZ-2D R/B 3.9 20:48:41 10° S 20:52:30 58° W 20:56:20 10° NNW
Cosmos 1328 Rocket 3.6 20:49:50 10° N 20:54:15 65° E 20:58:38 10° SSE
Cosmos 1437 Rocket 3.5 20:51:03 10° NNE 20:54:33 34° ENE 20:57:55 11° SE
SPOT 5 4.2 20:53:21 10° ESE 20:56:44 21° ENE 21:00:18 10° NNE
NOSS 3-1 (A) 4.3 20:52:48 10° SSE 20:57:27 26° ESE 21:02:22 10° NE
SJ-11-01 4.5 20:56:31 10° SSE 21:01:06 56° ENE 21:05:45 10° N
Cosmos 1743 Rocket 4.4 21:02:42 10° SSW 21:07:04 54° W 21:11:27 10° N
Meteor 1-21 Rocket 4.3 21:02:16 10° S 21:07:48 80° W 21:13:21 10° N
Cosmos 1500 Rocket 3.8 21:08:21 10° SSW 21:12:42 72° W 21:17:06 10° N
Cosmos 1437 3.0 21:14:41 13° SSE 21:17:22 47° E 21:20:33 10° NNE
Cosmos 1328 4.2 21:15:23 14° SSE 21:18:23 40° E 21:22:06 10° NNE
S3M 4.2 21:12:20 10° N 21:18:25 73° W 21:24:32 10° S
Cosmos 2228 Rocket 4.1 21:14:09 10° NNW 21:18:27 47° W 21:22:47 10° SSW
ATLAS 2AS CENTAUR R/B 4.2 21:18:20 15° ESE 21:19:55 16° ESE 21:24:20 10° ENE
Cosmos 1726 4.2 21:21:12 10° NE 21:22:56 13° ENE 21:23:25 12° E
Envisat 3.1 21:19:28 16° SSE 21:23:27 58° ENE 21:28:27 10° N
ERS-1 Rocket 3.1 21:19:30 10° S 21:24:31 78° WSW 21:29:34 10° NNW
Cosmos 2219 3.2 21:20:32 10° S 21:26:13 69° ESE 21:31:56 10° NNE
Delta 2 Rocket 3.4 21:25:27 10° W 21:29:04 59° N 21:31:53 14° ENE
deb Chang Zheng 4 4.2 21:28:56 10° N 21:33:11 58° WNW 21:37:26 10° SSW
BREEZE M DEB (TANK) 2.9 21:32:06 10° W 21:34:03 31° SSW 21:35:24 23° SSE
Cosmos 2237 Rocket 4.5 21:36:29 10° NE 21:36:53 10° NE 21:37:17 10° ENE
Cosmos 2151 2.9 21:35:00 10° S 21:39:11 83° W 21:43:24 10° N
Cosmos 2322 3.7 21:33:52 10° NNW 21:39:35 73° ENE 21:43:02 25° SSE
Cosmos 2322 Rocket 3.6 21:35:00 10° NW 21:39:59 34° WSW 21:44:57 10° SSW
Cosmos 2112 Rocket 4.2 21:35:32 10° N 21:40:41 56° ENE 21:43:24 27° SE
SL-14 R/B 4.0 21:40:06 31° ESE 21:40:53 34° E 21:44:30 10° NNE
Cosmos 1937 Rocket 4.3 21:41:24 26° SE 21:42:51 31° E 21:47:23 10° NE
NOSS 3-1 (C) 3.3 21:37:59 10° SSW 21:43:44 86° ESE 21:50:02 10° NNE
Cosmos 2298 Rocket 4.1 21:39:47 13° S 21:44:24 57° ESE 21:49:36 10° NNE
Terra 3.9 21:43:25 11° ENE 21:44:28 12° ENE 21:46:07 10° NE
Aureole 3 4.5 21:40:16 10° S 21:47:17 90° W 21:52:56 10° N
MetOp-B 4.2 21:44:55 27° SE 21:47:50 62° ENE 21:53:07 10° N
Cosmos 2360 Rocket 2.2 21:43:25 10° NNW 21:49:06 89° WSW 21:52:21 27° SSE
Cosmos 883 Rocket 4.5 21:43:00 10° N 21:49:13 85° W 21:53:56 18° S
Sich 1 3.5 21:48:46 34° SE 21:49:55 42° E 21:54:04 10° NNE
SL-16 R/B 3.8 21:46:43 10° NW 21:51:30 29° WSW 21:56:16 10° SSW
CZ-4 SHROUD 3.0 21:51:29 56° SSE 21:52:04 85° ENE 21:55:13 10° N
USA 245 4.2 21:53:37 20° NE 21:53:37 20° NE 21:54:45 10° NNE
Cosmos 1633 Rocket 3.4 21:52:39 37° SE 21:53:37 43° E 21:57:45 10° NNE
Cosmos 2058 2.8 21:52:03 26° S 21:54:16 86° E 21:58:22 10° N
DELTA 2 R/B (1) 3.6 21:49:42 10° WNW 21:55:16 80° NNE 21:58:07 30° ESE
Cosmos 1908 4.5 21:52:56 10° NNW 21:56:35 39° W 21:59:14 17° SSW
SWAS 4.4 21:52:22 10° NNW 21:56:42 72° ENE 21:58:00 43° SE
OAO 2 Rocket 3.3 21:54:04 10° WSW 21:59:23 78° SSE 22:03:20 18° E
Cosmos 1151 Rocket 4.0 21:58:05 10° NNW 22:02:11 43° W 22:05:01 18° SSW
SL-08 RB Rocket 4.2 22:06:50 38° E 22:07:31 41° ENE 22:11:44 10° N
Cosmos 1805 Rocket 3.9 22:06:22 23° SSW 22:09:05 66° W 22:13:31 10° N
H-2A R/B 3.3 22:08:02 25° E 22:09:10 28° ENE 22:13:41 10° NNE
CZ-4 R/B 3.8 22:06:51 10° NNE 22:11:45 70° ESE 22:13:20 42° S
Meteor 1-11 4.3 22:07:48 19° S 22:12:00 83° W 22:17:46 10° N
Cosmos 2227 Rocket 2.6 22:11:30 39° ESE 22:12:02 40° ESE 22:17:16 10° NE
OTV 4 3.0 22:09:12 10° WSW 22:09:38 13° WSW 22:09:38 13° WSW
YAOGAN 6 2.5 22:12:45 68° SSW 22:13:09 80° W 22:16:47 10° NNW
CZ-4B R/B 3.6 22:08:16 10° N 22:13:33 78° WNW 22:17:02 21° SSW
Tiangong 1 3.1 22:12:11 10° W 22:14:55 28° NNW 22:17:12 13° NE
Cosmos 1680 Rocket 4.1 22:12:03 10° NNW 22:17:08 52° WSW 22:19:32 29° SSW
Cosmos 1300 2.5 22:13:43 10° N 22:17:34 85° W 22:17:52 74° SSW
Cosmos 2315 Rocket 4.2 22:12:19 10° NNW 22:18:28 70° W 22:21:57 27° S
SPOT 1/Viking Rocket 3.4 22:19:48 46° SSE 22:21:23 90° WSW 22:26:34 10° NNW
Cosmos 1241 Rocket 4.3 22:22:15 34° S 22:24:54 63° ESE 22:31:03 10° NE
H-2A R/B 4.3 22:22:16 11° SW 22:25:26 21° W 22:28:50 10° NW
Cosmos 1898 Rocket 3.8 22:21:55 18° SSW 22:25:46 65° WNW 22:30:57 10° N
Cosmos 2333 Rocket 3.1 22:25:04 10° N 22:30:15 34° ENE 22:31:18 32° E
SL-16 R/B 4.3 22:28:04 10° NNE 22:30:29 13° NE 22:32:01 11° ENE
Cosmos 1666 Rocket 4.3 22:29:56 31° SW 22:31:40 49° W 22:35:57 10° N
Cosmos 1707 Rocket 3.9 22:27:51 10° NNW 22:32:08 58° W 22:32:57 49° SW
Cosmos 220 Rocket 4.0 22:31:40 64° SW 22:32:17 81° WNW 22:36:43 10° NNE
SPOT 5 4.3 22:32:35 21° SW 22:34:34 29° W 22:38:41 10° NW
Cosmos 2297 Rocket 2.5 22:39:28 46° E 22:39:28 46° E 22:44:26 10° NNE
Cosmos 1455 3.8 22:36:39 10° NNE 22:38:49 26° NE 22:38:49 26° NE
Nadezhda 1 Rocket 4.0 22:35:24 10° N 22:41:23 57° E 22:42:17 52° ESE
COSMOS 2428 2.8 22:36:25 10° NNW 22:42:03 67° WSW 22:43:18 51° SSW
ARGOS 3.3 22:41:02 50° SSW 22:42:20 69° WSW 22:47:44 10° NNW
Cosmos 1470 Rocket 3.6 22:45:42 69° NNE 22:45:42 69° NNE 22:49:33 10° N
Cosmos 1933 Rocket 3.6 22:46:48 73° NNE 22:46:48 73° NNE 22:50:53 10° N
Cosmos 1745 Rocket 4.0 22:47:12 45° SSW 22:49:18 80° W 22:55:31 10° N
Cosmos 2219 Rocket 2.1 22:44:32 10° NNW 22:50:07 68° ENE 22:50:35 64° E
Cosmos 1709 Rocket 4.2 22:57:41 49° E 22:57:41 49° E 23:03:28 10° NNE
Cosmos 1726 3.8 22:55:01 10° NNW 22:58:06 29° W 22:58:06 29° W
DMSP B5D2-2 3.9 22:55:59 10° NNE 23:01:13 87° WNW 23:01:25 82° SW
NOSS 0 Rocket 3.7 22:58:35 10° NNW 23:04:46 79° ENE 23:05:19 72° ESE
Landsat 7 4.1 23:05:56 61° W 23:05:56 61° W 23:10:29 10° NNW
Cosmos 1980 3.7 23:03:33 10° NNW 23:09:10 70° ENE 23:09:10 70° ENE
Cosmos 292 Rocket 4.2 23:05:03 10° NNW 23:09:18 54° W 23:09:18 54° W
ATLAS 2AS CENTAUR R/B 2.9 23:05:37 29° SW 23:09:50 82° WNW 23:17:51 10° NNE
Terra 2.4 23:22:18 54° WNW 23:22:18 54° WNW 23:26:20 10° NNW
Cosmos 2082 4.4 23:19:48 37° WSW 23:21:38 50° WNW 23:27:11 10° N
Cosmos 2237 Rocket 2.2 23:16:04 10° NNW 23:21:31 79° NNE 23:21:31 79° NNE
Spot 4 4.3 23:26:34 59° NW 23:26:34 59° NW 23:30:36 10° NNW
Cosmos 2181 Rocket 4.1 23:22:55 10° N 23:29:09 62° ENE 23:29:09 62° ENE
ATLAS 3B R/B 3.3 23:23:45 10° NNW 23:30:18 43° NE 23:31:15 40° ENE
Lacrosse 4 Rocket 3.4 23:27:05 10° N 23:29:44 25° NNE 23:29:44 25° NNE
Cosmos 1626 4.5 23:35:44 22° NW 23:35:44 22° NW 23:37:44 10° NNW
H-2A R/B 3.4 23:48:41 31° W 23:48:41 31° W 23:53:10 10° NW
COSMOS 2455 3.1 23:47:56 10° NNW 23:53:21 63° NNE 23:53:21 63° NNE
